Voltar ao catálogo

STARLINK-1807

AtivoComunicaçõesVLEO
NORAD 46706·PAYLOAD·🇺🇸 United States

Lançado Oct 18, 2020 de Cape Canaveral Space Force Station

Loading…

Próximas Passagens (próximas 24 horas)

TLE

AtualizadoSource: CelesTrak SupGP

Época: Sep 15, 2026, 01:41 UTC

1 46706C 20073AN  26258.07062500  .00010651  00000+0  27753-3 0  2585
2 46706  53.0546  65.3014 0000892  93.2601 277.9707 15.38285063    18

Acompanhe STARLINK-1807 em tempo real com AllMySat

Download on the App Store